Regional Weather Roundup
Issued by NWS

Home | Current Version | Previous Version | Graphics & Text | Print | Product List | Glossary On
Versions: 1 2 3 4 5 6 7 8 9 10 11 12 13 14 15 16 17 18 19 20 21 22 23 24 25 26 27 28 29 30 31 32 33 34 35 36 37 38 39 40 41 42 43 44 45 46 47 48 49 50
000
ASUS45 KABQ 182010
RWRNM
WEATHER ROUNDUP FOR NEW MEXICO
NATIONAL WEATHER SERVICE ALBUQUERQUE NM
200 PM MDT THU SEP 18 2014

NOTE: "FAIR" MEANS FEW OR NO CLOUDS BELOW 12,000 FEET AGL WITH NO
       SIGNIFICANT WEATHER OR OBSTRUCTIONS TO VISION.

      THIS PRODUCT IS RELEASED AS TWO VERSIONS.  ONE VERSION NEAR
      THE TOP OF THE HOUR CONTAINING PRELIMINARY DATA FROM ALBUQUERQUE
      AND OTHER STATIONS.  A FINAL VERSION WITH ADDITIONAL DATA IS
      ISSUED ABOUT 10 MINUTES AFTER THE HOUR.

NMZ501-503-504-510>518-182100-
NORTHWEST PLATEAU/NORTHCENTRAL MOUNTAINS

CITY           SKY/WX    TMP DP  RH WIND       PRES   REMARKS
FARMINGTON     SUNNY     81  39  22 VRB3      30.02F
LOS ALAMOS     SUNNY     76  29  17 NE6       30.14F
SANTA FE       SUNNY     80  34  19 CALM      30.06F
TAOS           SUNNY     81  30  16 SE17      30.13F
ANGEL FIRE     FAIR      72  25  17 E14G26    30.25F

$$
NMZ402-403-502-505>509-182100-
WESTCENTRAL MOUNTAINS/SOUTHWEST MOUNTAINS

CITY           SKY/WX    TMP DP  RH WIND       PRES   REMARKS
GALLUP         CLOUDY    73  49  42 NW5       30.09F
GRANTS         SUNNY     79  41  25 SE14G23   30.12S
SILVER CITY    LGT RAIN  63  61  94 E8        30.06F

$$
NMZ407-409-411-412-182100-
SOUTHERN DESERTS

CITY           SKY/WX    TMP DP  RH WIND       PRES   REMARKS
LORDSBURG      DRIZZLE   64  63  94 MISG      29.97F
DEMING         HVY RAIN  63  63 100 NE13      29.99F FOG
LAS CRUCES     CLOUDY    64  63  96 NE6       30.01F
HOLLOMAN AFB   LGT RAIN  67  65  92 CALM      29.99F
ALAMOGORDO     LGT RAIN  66  66 100 NW3       30.01F
T OR C         LGT RAIN  65  60  84 SE8       30.03F

$$
NMZ519>523-182100-
CENTRAL VALLEYS/CENTRAL HIGHLANDS

CITY           SKY/WX    TMP DP  RH WIND       PRES   REMARKS
ALBUQUERQUE    MOSUNNY   78  50  37 W8        30.02F
DOUBLE EAGLE   MOSUNNY   79  45  29 S10       30.06F
MORIARTY ARPT  FAIR      80  37  21 SE10      30.08F
CLINES CORNERS SUNNY     73  41  31 E20G26    30.12F
BELEN          FAIR      76  54  47 SW5       30.03F
SOCORRO        FAIR      72  61  67 CALM      30.02F

$$
NMZ524>526-539-540-182100-
SOUTHCENTRAL MOUNTAINS

CITY           SKY/WX    TMP DP  RH WIND       PRES   REMARKS
RUIDOSO        NOT AVBL

$$
NMZ527>531-182100-
NORTHEAST HIGHLANDS/NORTHEAST PLAINS

CITY           SKY/WX    TMP DP  RH WIND       PRES   REMARKS
LAS VEGAS      SUNNY     78  41  26 E10G21    30.13F
RATON          SUNNY     82  34  17 E10G21    30.09F
CLAYTON        MOSUNNY   77  57  50 E12       30.05F

$$
NMZ532>537-182100-
EASTCENTRAL PLAINS

CITY           SKY/WX    TMP DP  RH WIND       PRES   REMARKS
TUCUMCARI      PTSUNNY   75  62  64 SE14      29.99F
CANNON AFB     CLOUDY    66  64  94 E15       30.03F
CLOVIS AIRPORT   N/A     66  63  88 SE13      30.06F

$$
NMZ028-029-538-182100-
SOUTHEAST PLAINS

CITY           SKY/WX    TMP DP  RH WIND       PRES   REMARKS
ROSWELL        CLOUDY    76  63  64 S8        29.98S
CARLSBAD       CLOUDY    76  68  76 VRB5      29.95F
HOBBS          PTSUNNY   72  66  83 E9        30.01F


$$


USA.gov is the U.S. government's official web portal to all federal, state and local government web resources and services.